Hourly Data Report for May 21, 2012

All times are specified in Local Standard Time (LST). Add 1 hour to adjust for Daylight Saving Time where and when it is observed.

ST. JOHN'S INTL A
NEWFOUNDLAND

47°37'07.000" N
52°45'09.000" W
140.50 m
8403505
71801
YYT

Download Data

Hourly Data (May 2012)
Hourly Data Report for May 21, 2012
Temp Definition
°C
Dew Point Temp Definition
°C
Rel Hum Definition
%
Wind Dir Definition
10's deg

Wind Spd Definition
km/h
Visibility Definition
km
Stn Press Definition
kPa
Hmdx Definition


Wind Chill Definition


Weather Definition


TIME
00:30 Legend Double Dagger -0.1 -1.0 94 31 12 10.0 100.88   -4 LegendNANA
01:30 Legend Double Dagger 1.3 0.1 92 30 12 10.0 100.87     LegendNANA
02:30 Legend Double Dagger 2.8 0.7 86 29 9 10.0 100.90     Cloudy
03:30 Legend Double Dagger 2.8 0.9 87 33 8 10.0 100.95     LegendNANA
04:30 Legend Double Dagger 2.1 0.6 90 33 5 10.0 101.01     LegendNANA
05:30 Legend Double Dagger 2.7 1.2 90 35 9 10.0 101.06     Mostly Cloudy
06:30 Legend Double Dagger 4.2 1.6 83 32 13 10.0 101.07     LegendNANA
07:30 Legend Double Dagger 5.8 2.3 78 30 13 10.0 101.08     LegendNANA
08:30 Legend Double Dagger 7.4 1.9 68 34 10 10.0 101.08     Mainly Clear
09:30 Legend Double Dagger 8.7 1.9 62 32 15 10.0 101.08     LegendNANA
10:30 Legend Double Dagger 9.4 2.3 61 30 18 10.0 101.06     LegendNANA
11:30 Legend Double Dagger 10.5 1.4 53 27 18 10.0 101.03     Mostly Cloudy
12:30 Legend Double Dagger 11.4 -0.7 43 28 22 10.0 100.99     LegendNANA
13:30 Legend Double Dagger 12.4 0.2 43 24 17 10.0 100.96     LegendNANA
14:30 Legend Double Dagger 11.0 -0.1 46 28 14 10.0 100.93     Mostly Cloudy
15:30 Legend Double Dagger 12.8 -0.1 41 25 19 10.0 100.89     LegendNANA
16:30 Legend Double Dagger 11.8 0.3 45 27 22 10.0 100.80     LegendNANA
17:30 Legend Double Dagger 10.4 1.0 52 27 17 10.0 100.73     Cloudy
18:30 Legend Double Dagger 10.3 1.4 54 25 19 10.0 100.68     LegendNANA
19:30 Legend Double Dagger 10.1 2.0 57 24 22 10.0 100.65     LegendNANA
20:30 Legend Double Dagger 9.6 2.5 61 23 17 10.0 100.64     Mostly Cloudy
21:30 Legend Double Dagger 9.4 1.6 58 23 22 10.0 100.53     LegendNANA
22:30 Legend Double Dagger 8.8 0.5 56 23 14 10.0 100.49     LegendNANA
23:30 Legend Double Dagger 7.7 2.0 67 24 17 10.0 100.46     Mainly Clear

Notes on Data Quality.

Legend

  • E = Estimated
  • M = Missing
  • NA = Not Available
  • ‡ = Partner data that is not subject to review by the National Climate Archives
Date modified: